Terminal Aerodrome Forecast
Issued by NWS

Home | Current Version | Previous Version | Text Only | Print | Product List | Glossary On
Versions: 1 2 3 4 5 6 7 8 9 10 11 12 13 14 15 16 17 18
335
FTUS41 KPBZ 041320 AAA
TAFBVI
TAF AMD
KBVI 041320Z 0413/0512 00000KT P6SM OVC090
     FM041700 22005KT P6SM SCT050
     FM050200 VRB03KT 3SM -SHRA OVC020
     FM050400 VRB03KT 3SM -SHRA BR OVC015=

USA.gov is the U.S. government's official web portal to all federal, state and local government web resources and services.